This is the latest recevied weather packets stored in our database for station/object N2PPN. If no packets are shown the sender has not sent any weather packets the latest 10 day(s).
| Time | Temp. | Humidity | Pressure | Rain* | Wind** | Luminosity | Snow |
|---|---|---|---|---|---|---|---|
| 1777915753 | 17.78° C | 59% | 1014.7 hPa | 0 mm | - | 722 W/m² | - |
| 1777915449 | 17.22° C | 57% | 1014.7 hPa | 0 mm | - | 729 W/m² | - |
| 1777915145 | 17.78° C | 58% | 1014.8 hPa | 0 mm | - | 726 W/m² | - |
| 1777914842 | 18.89° C | 56% | 1015.1 hPa | 0 mm | - | 726 W/m² | - |
| 1777914539 | 17.78° C | 59% | 1015 hPa | 0 mm | - | 728 W/m² | - |
| 1777914236 | 17.22° C | 60% | 1015.4 hPa | 0 mm | - | 730 W/m² | - |
| 1777913932 | 17.78° C | 59% | 1015.2 hPa | 0 mm | - | 735 W/m² | - |
| 1777913629 | 17.22° C | 58% | 1015.3 hPa | 0 mm | - | 733 W/m² | - |
| 1777913325 | 17.22° C | 58% | 1015.3 hPa | 0 mm | - | 730 W/m² | - |
| 1777913022 | 17.78° C | 54% | 1015.5 hPa | 0 mm | - | 732 W/m² | - |
| 1777912718 | 17.22° C | 55% | 1015.6 hPa | 0 mm | - | 729 W/m² | - |
| 1777912414 | 17.22° C | 56% | 1015.8 hPa | 0 mm | - | 730 W/m² | - |
| 1777912110 | 17.22° C | 56% | 1015.5 hPa | 0 mm | - | 732 W/m² | - |
| 1777911806 | 17.78° C | 53% | 1015.8 hPa | 0 mm | - | 726 W/m² | - |
| 1777911503 | 17.78° C | 52% | 1015.9 hPa | 0 mm | - | 725 W/m² | - |
| 1777911201 | 17.22° C | 53% | 1015.8 hPa | 0 mm | - | 721 W/m² | - |
| 1777910898 | 17.22° C | 52% | 1015.8 hPa | 0 mm | - | 719 W/m² | - |
| 1777910595 | 17.22° C | 51% | 1016.1 hPa | 0 mm | - | 714 W/m² | - |
| 1777910291 | 17.22° C | 53% | 1016.1 hPa | 0 mm | - | 710 W/m² | - |
| 1777909988 | 17.78° C | 50% | 1015.8 hPa | 0 mm | - | 708 W/m² | - |
| 1777909685 | 17.78° C | 51% | 1016 hPa | 0 mm | - | 701 W/m² | - |
| 1777909382 | 17.78° C | 51% | 1016.4 hPa | 0 mm | - | 698 W/m² | - |
| 1777909081 | 17.78° C | 48% | 1016 hPa | 0 mm | - | 694 W/m² | - |
| 1777908778 | 17.78° C | 47% | 1016 hPa | 0 mm | - | 687 W/m² | - |
| 1777908475 | 17.78° C | 48% | 1016.4 hPa | 0 mm | - | 681 W/m² | - |
* Rain latest hour (hover to see other rain measurements)
** Current wind speed in m/s (hover to see current wind gust speed)